KG1ZR Weather Reports


Display with metric or nautical units.
time (UTC)temp
F
wind
direction
speed
MPH
gust
MPH
rain 1hr
in
rain 24hr
in
rain mn
in
humidity
%
barometer
mb
20260906193029 64 11 1.0 5.0 0.01 0.01 0.01 71 1012.2
20260906192028 66 282 1.0 8.0 0.00 0.00 0.00 66 1012.2
20260906191029 68 299 2.0 8.0 0.00 0.00 0.00 60 1011.9
20260906190029 69 80 2.0 9.0 0.00 0.00 0.00 55 1011.7
20260906185029 69 319 2.0 9.0 0.00 0.00 0.00 54 1011.7
20260906184028 68 303 1.0 4.0 0.00 0.00 0.00 59 1011.9
20260906183503 67 288 1.0 4.0 0.00 0.00 0.00 62 1012.0
20260906182028 66 308 1.0 5.0 0.00 0.00 0.00 68 1012.2
20260906181029 65 102 1.0 6.0 0.00 0.00 0.00 66 1012.3
20260906180029 65 261 1.0 4.0 0.00 0.00 0.00 69 1012.3
20260906175503 65 277 1.0 7.0 0.00 0.00 0.00 70 1012.4
20260906174029 65 282 2.0 9.0 0.00 0.00 0.00 67 1012.5
20260906173029 67 103 3.0 9.0 0.00 0.00 0.00 59 1012.6
20260906172029 69 279 3.0 8.0 0.00 0.00 0.00 58 1012.1
20260906171029 68 72 3.0 6.0 0.00 0.00 0.00 58 1012.4
20260906170028 68 87 1.0 7.0 0.00 0.00 0.00 58 1012.6
20260906165029 70 260 2.0 7.0 0.00 0.00 0.00 56 1012.7
20260906164028 69 43 2.0 7.0 0.00 0.00 0.00 62 1012.8
20260906163028 69 221 2.0 7.0 0.00 0.00 0.00 57 1013.0
20260906162029 68 294 2.0 6.0 0.00 0.00 0.00 61 1013.1
20260906161028 66 304 2.0 8.0 0.00 0.00 0.00 60 1013.3
20260906160028 67 156 3.0 9.0 0.00 0.00 0.00 56 1013.3
20260906155029 68 284 2.0 9.0 0.00 0.00 0.00 58 1013.4
20260906154028 67 220 2.0 8.0 0.00 0.00 0.00 61 1013.4
20260906153029 67 55 2.0 6.0 0.00 0.00 0.00 57 1013.8
20260906152028 67 271 2.0 7.0 0.00 0.00 0.00 60 1013.8
20260906151028 66 178 2.0 8.0 0.00 0.00 0.00 59 1014.0
20260906150029 66 294 2.0 8.0 0.00 0.00 0.00 61 1014.1
20260906145029 65 291 2.0 8.0 0.00 0.00 0.00 60 1014.0
20260906144028 65 51 2.0 5.0 0.00 0.00 0.00 63 1014.0
20260906143030 65 219 2.0 6.0 0.00 0.00 0.00 64 1014.1
20260906142029 64 193 2.0 7.0 0.00 0.00 0.00 64 1014.2
20260906141029 63 284 1.0 6.0 0.00 0.00 0.00 70 1014.2
20260906140511 62 155 1.0 3.0 0.00 0.00 0.00 72 1014.2
20260906135026 62 330 1.0 9.0 0.00 0.00 0.00 74 1014.1
20260906134027 61 323 2.0 9.0 0.00 0.00 0.00 75 1014.3
20260906133021 60 297 1.0 6.0 0.00 0.00 0.00 75 1014.5
20260906132021 59 269 1.0 3.0 0.00 0.00 0.00 75 1014.6
20260906131020 60 254 2.0 4.0 0.00 0.01 0.00 75 1014.6
20260906130020 59 245 2.0 8.0 0.00 0.01 0.00 75 1014.5
20260906125021 58 5 1.0 7.0 0.00 0.01 0.00 75 1014.5
20260906124021 57 296 0.0 6.0 0.00 0.01 0.00 73 1014.5
20260906123021 55 264 1.0 6.0 0.00 0.01 0.00 72 1014.6
20260906122021 55 217 0.0 3.0 0.00 0.01 0.00 69 1014.5
20260906121021 54 214 0.0 2.0 0.00 0.01 0.00 66 1014.4
20260906120020 54 194 0.0 2.0 0.00 0.01 0.00 60 1014.4
20260906115454 54 68 0.0 0.0 0.00 0.01 0.00 59 1014.3
20260906114020 53 68 0.0 0.0 0.00 0.01 0.00 59 1014.3
20260906113020 53 68 0.0 2.0 0.00 0.01 0.00 60 1014.1
20260906112020 52 68 0.0 1.0 0.00 0.01 0.00 62 1014.0
20260906111021 51 68 0.0 1.0 0.00 0.01 0.00 63 1014.0
20260906110949 51 68 0.0 1.0 0.00 0.01 0.00 64 1014.0
20260906105020 51 68 0.0 1.0 0.00 0.01 0.00 65 1014.0
20260906104151 51 68 0.0 1.0 0.00 0.01 0.00 66 1014.0
20260906102021 52 68 0.0 2.0 0.00 0.01 0.00 67 1013.9
20260906101021 52 68 0.0 0.0 0.00 0.01 0.00 67 1013.8
20260906100021 52 68 0.0 1.0 0.00 0.01 0.00 68 1013.9
20260906095020 53 68 0.0 0.0 0.00 0.01 0.00 67 1013.8
20260906094021 53 68 0.0 0.0 0.00 0.01 0.00 68 1013.8
20260906093021 53 68 0.0 1.0 0.00 0.01 0.00 68 1013.5
20260906092020 53 68 0.0 1.0 0.00 0.01 0.00 68 1013.4
20260906091020 53 68 1.0 5.0 0.00 0.01 0.00 68 1013.4
20260906090020 54 39 0.0 5.0 0.00 0.01 0.00 68 1013.3
20260906085021 54 34 0.0 3.0 0.00 0.01 0.00 67 1013.3
20260906084021 54 34 1.0 3.0 0.00 0.01 0.00 65 1013.2
20260906083500 54 22 0.0 3.0 0.00 0.01 0.00 61 1013.1
20260906082019 54 46 1.0 3.0 0.00 0.01 0.00 60 1013.1
20260906081018 54 61 1.0 4.0 0.00 0.01 0.00 59 1013.1
20260906080016 53 97 0.0 3.0 0.00 0.01 0.00 58 1013.1
20260906075014 53 349 0.0 3.0 0.00 0.01 0.00 59 1013.0
20260906074013 53 349 0.0 3.0 0.00 0.01 0.00 59 1013.0
20260906073011 52 58 0.0 3.0 0.00 0.01 0.00 60 1013.0
20260906072006 52 63 0.0 2.0 0.00 0.01 0.00 61 1013.0
20260906071004 52 60 0.0 2.0 0.00 0.01 0.00 61 1012.8
20260906070005 52 5 0.0 0.0 0.00 0.01 0.00 61 1012.9
20260906065005 52 5 0.0 1.0 0.00 0.01 0.00 62 1012.8
20260906064444 52 5 0.0 0.0 0.00 0.01 0.00 61 1012.8
20260906063441 53 5 0.0 0.0 0.00 0.01 0.00 61 1012.7
20260906062004 53 5 0.0 0.0 0.00 0.01 0.00 62 1012.8
20260906061006 53 5 0.0 1.0 0.00 0.01 0.00 62 1012.8
20260906060006 53 5 0.0 10.0 0.00 0.01 0.00 62 1012.8
20260906055005 53 5 1.0 10.0 0.00 0.01 0.00 62 1012.7
20260906054006 53 13 1.0 5.0 0.00 0.01 0.00 61 1012.8
20260906053005 53 46 2.0 7.0 0.00 0.01 0.00 60 1012.7
20260906052001 53 41 1.0 5.0 0.00 0.01 0.00 60 1012.7
20260906051000 52 36 2.0 4.0 0.00 0.01 0.00 60 1012.8
20260906045958 52 57 1.0 4.0 0.00 0.01 0.00 61 1012.9
20260906045441 51 67 0.0 0.0 0.00 0.01 0.00 62 1012.9
20260906043957 52 61 0.0 0.0 0.00 0.01 0.00 62 1012.8
20260906042956 52 298 0.0 0.0 0.00 0.01 0.00 63 1012.9
20260906041956 52 62 0.0 0.0 0.00 0.01 0.00 64 1012.8
20260906041431 52 62 0.0 0.0 0.00 0.01 0.00 64 1012.8
20260906040433 52 62 0.0 0.0 0.00 0.01 0.01 65 1012.7
20260906034953 52 62 0.0 0.0 0.00 0.01 0.01 65 1012.7
20260906033953 53 62 0.0 0.0 0.00 0.01 0.01 66 1012.7
20260906032953 53 62 0.0 0.0 0.00 0.01 0.01 68 1012.7
20260906031947 53 62 0.0 2.0 0.00 0.01 0.01 68 1012.7
20260906030947 54 62 1.0 2.0 0.00 0.01 0.01 68 1012.7
20260906025948 54 266 0.0 2.0 0.00 0.01 0.01 69 1012.6
20260906024946 55 312 0.0 2.0 0.00 0.01 0.01 71 1012.6
20260906023946 55 337 1.0 2.0 0.00 0.01 0.01 72 1012.5
20260906022945 56 60 0.0 4.0 0.00 0.01 0.01 73 1012.5
20260906022425 56 60 1.0 4.0 0.00 0.01 0.01 74 1012.4
20260906021424 57 60 0.0 5.0 0.00 0.01 0.01 74 1012.4
20260906015944 57 58 1.0 5.0 0.00 0.01 0.01 74 1012.4
20260906014943 57 64 1.0 4.0 0.00 0.01 0.01 73 1012.4
20260906013942 56 51 1.0 4.0 0.00 0.01 0.01 73 1012.5
20260906012941 57 53 0.0 2.0 0.00 0.01 0.01 73 1012.5
20260906011941 57 22 0.0 1.0 0.00 0.01 0.01 74 1012.6
20260906010941 58 5 0.0 1.0 0.00 0.01 0.01 75 1012.5
20260906005941 58 5 0.0 4.0 0.00 0.01 0.01 75 1012.4
20260906004942 58 37 1.0 4.0 0.00 0.01 0.01 75 1012.3
20260906003942 58 46 1.0 2.0 0.00 0.01 0.01 76 1012.2
20260906002941 59 43 0.0 2.0 0.00 0.01 0.01 76 1012.1
20260906001941 60 45 0.0 2.0 0.00 0.01 0.01 76 1012.2
20260906000942 60 45 1.0 5.0 0.00 0.01 0.01 76 1012.2
20260905235942 60 47 2.0 5.0 0.00 0.01 0.01 76 1012.2
20260905234942 60 66 1.0 5.0 0.00 0.01 0.01 76 1012.1
20260905233939 60 53 1.0 6.0 0.00 0.01 0.01 76 1012.1
20260905233419 60 38 1.0 6.0 0.00 0.01 0.01 76 1012.0
20260905231939 60 83 0.0 2.0 0.00 0.01 0.01 76 1011.8
20260905230939 61 61 0.0 4.0 0.00 0.01 0.01 76 1011.7
20260905225937 62 42 0.0 4.0 0.00 0.01 0.01 76 1011.8
20260905224937 63 310 0.0 0.0 0.00 0.01 0.01 76 1011.7
20260905224417 64 310 0.0 0.0 0.00 0.01 0.01 76 1011.6
20260905222937 65 310 0.0 0.0 0.00 0.01 0.01 75 1011.4
20260905221937 66 310 0.0 0.0 0.00 0.01 0.01 74 1011.3
20260905220937 66 310 0.0 2.0 0.00 0.01 0.01 74 1011.3
20260905215935 66 123 0.0 6.0 0.00 0.01 0.01 74 1011.1
20260905214935 67 64 1.0 6.0 0.00 0.01 0.01 73 1011.0
20260905213935 67 53 1.0 6.0 0.00 0.01 0.01 71 1010.8
20260905212935 67 54 1.0 5.0 0.00 0.01 0.01 69 1010.8
20260905211935 68 5 1.0 9.0 0.00 0.01 0.01 70 1010.6
20260905210935 67 341 2.0 9.0 0.00 0.02 0.01 68 1010.7
20260905210422 67 90 3.0 10.0 0.00 0.02 0.01 69 1010.5
20260905204935 68 71 3.0 11.0 0.00 0.02 0.01 68 1010.3
20260905203935 68 56 1.0 7.0 0.00 0.02 0.01 71 1010.4
20260905202935 68 65 1.0 10.0 0.00 0.02 0.01 70 1010.3
20260905201934 68 316 3.0 11.0 0.00 0.02 0.01 67 1010.3
20260905200933 69 32 2.0 9.0 0.00 0.02 0.01 65 1010.2
20260905195933 69 13 1.0 9.0 0.00 0.02 0.01 71 1010.2
20260905194933 68 281 2.0 7.0 0.00 0.02 0.01 71 1010.1
20260905194852 68 42 3.0 11.0 0.00 0.02 0.01 67 1010.2